SCP
0 0 0 0 0 0 0 0 0 0 0 0 0 0 0 0 0 0 0 0 0 0 0 0 0 0 0 0 0 0 0 0 0 0 0 0 0 0 0 0 0 0 0 0 0 0 0 0 0
0 0 0 0 0 0 0 0 0 0 0 0 0 0 0 0 0 0 0 0 0 0 0 0 0 0 0 0 0 0 0 0 0 0 0 0 0 0 0 0 0 0 0 0 0 0 0 0 0
0 0 0 0 0 0 0 0 0 0 0 0 0 0 0 0 0 0 0 0 0 0 0 0 0 0 0 0 0 0 0 0 0 0 0 0 0 0 0 0 0 0 0 0 0 0 0 0 0
0 0 0 0 0 0 0 0 0 0 0 0 0 0 0 0 0 0 0 0 0 0 0 0 0 0 0 0 0 0 0 0 0 0 0 0 0 0 0 0 0 0 0 0 0 0 0 0 0
0 0 0 0 0 0 0 0 0 0 0 0 0 0 0 0 0 0 0 0 0 0 0 0 0 0 0 0 0 0 0 0 0 0 0 0 0 0 0 0 0 0 0 0 0 0 0 0 0
0 0 0 0 0 0 0 0 0 0 0 0 0 0 0 0 0 0 0 0 0 0 0 0 0 0 0 0 0 0 0 0 0 0 0 0 0 0 0 0 0 0 0 0 0 0 0 0 0
0 0 0 0 0 0 0 0 0 0 0 0 0 0 0 0 0 0 0 0 0 0 0 0 0 0 0 0 0 0 0 0 0 0 0 0 0 0 0 0 0 0 0 0 0 0 0 0 0
0 0 0 0 0 0 0 0 0 0 0 0 0 0 0 0 0 0 0 0 0 0 0 0 0 0 0 0 0 0 0 0 0 0 0 0 0 0 0 0 0 0 0 0 0 0 0 0 0
0 0 0 0 0 0 0 0 0 0 0 0 0 0 0 0 0 0 0 0 0 0 0 0 0 0 0 0 0 0 0 0 0 0 0 0 0 0 0 0 0 0 0 0 0 0 0 0 0
0 0 0 0 0 0 0 0 0 0 0 0 0 0 0 0 0 0 0 0 0 0 0 0 0 0 0 0 0 0 0 0 0 0 0 0 0 0 0 0 0 0 0 0 0 0 0 0 0
0 0 0 0 0 0 0 0 0 0 0 0 0 0 0 0 0 0 0 0 0 0 0 0 0 0 0 0 0 0 0 0 0 0 0 0 0 0 0 0 0 0 0 0 0 0 0 0 0
0 0 0 0 0 0 0 0 0 0 0 0 0 0 0 0 0 0 0 0 0 0 0 0 0 0 0 0 0 0 0 0 0 0 0 0 0 0 0 0 0 0 0 0 0 0 0 0 0
0 0 0 0 0 0 0 0 0 0 0 0 0 0 0 0 0 0 0 0 0 0 0 0 0 0 0 0 0 0 0 0 0 0 0 0 0 0 0 0 0 0 0 0 0 0 0 0 0
0 0 0 0 0 0 0 0 0 0 0 0 0 0 0 0 0 0 0 0 0 0 0 0 0 0 0 0 0 0 0 0 0 0 0 0 0 0 0 0 0 0 0 0 0 0 0 0 0
0 0 0 0 0 0 0 0 0 0 0 0 0 0 0 0 0 0 0 0 0 0 0 0 0 0 0 0 0 0 0 0 0 0 0 0 0 0 0 0 0 0 0 0 0 0 0 0 0
0 0 0 0 0 0 0 0 0 0 0 0 0 0 0 0 0 0 0 0 0 0 0 0 0 0 0 0 0 0 0 0 0 0 0 0 0 0 0 0 0 0 0 0 0 0 0 0 0
0 0 0 0 0 0 0 0 0 0 0 0 0 0 0 0 0 0 0 0 0 0 0 0 0 0 0 0 0 0 0 0 0 0 0 0 0 0 0 0 0 0 0 0 0 0 0 0 0
0 0 0 0 0 0 0 0 0 0 0 0 0 0 0 0 0 0 0 0 0 0 0 0 0 0 0 0 0 0 0 0 0 0 0 0 0 0 0 0 0 0 0 0 0 0 0 0 0
0 0 0 0 0 0 0 0 0 0 0 0 0 0 0 0 0 0 0 0 0 0 0 0 0 0 0 0 0 0 0 0 0 0 0 0 0 0 0 0 0 0 0 0 0 0 0 0 0
0 0 0 0 0 0 0 0 0 0 0 0 0 0 0 0 0 0 0 0 0 0 0 0 0 0 0 0 0 0 0 0 0 0 0 0 0 0 0 0 0 0 0 0 0 0 0 0 0
0 0 0 0 0 0 0 0 0 0 0 0 0 0 0 0 0 0 0 0 0 0 0 0 0 0 0 0 0 0 0 0 0 0 0 0 0 0 0 0 0 0 0 0 0 0 0 0 0
0 0 0 0 0 0 0 0 0 0 0 0 0 0 0 0 0 0 0 0 0 0 0 0 0 0 0 0 0 0 0 0 0 0 0 0 0 0 0 0 0 0 0 0 0 0 0 0 0
0 0 0 0 0 0 0 0 0 0 0 0 0 0 0 0 0 0 0 0 0 0 0 0 0 0 0 0 0 0 0 0 0 0 0 0 0 0 0 0 0 0 0 0 0 0 0 0 0
0 0 0 0 0 0 0 0 0 0 0 0 0 0 0 0 0 0 0 0 0 0 0 0 0 0 0 0 0 0 0 0 0 0 0 0 0 0 0 0 0 0 0 0 0 0 0 0 0
0 0 0 0 0 0 0 0 0 0 0 0 0 0 0 0 0 0 0 0 0 0 0 0 0 0 0 0 0 0 0 0 0 0 0 0 0 0 0 0 0 0 0 0 0 0 0 0 0
0 0 0 0 0 0 0 0 0 0 0 0 0 0 0 0 0 0 0 0 0 0 0 0 0 0 0 0 0 0 0 0 0 0 0 0 0 0 0 0 0 0 0 0 0 0 0 0 0
0 0 0 0 0 0 0 0 0 0 0 0 0 0 0 0 0 0 0 0 0 0 0 0 0 0 0 0 0 0 0 0 0 0 0 0 0 0 0 0 0 0 0 0 0 0 0 0 0
0 0 0 0 0 0 0 0 0 0 0 0 0 0 0 0 0 0 0 0 0 0 0 0 0 0 0 0 0 0 0 0 0 0 0 0 0 0 0 0 0 0 0 0 0 0 0 0 0
0 0 0 0 0 0 0 0 0 0 0 0 0 0 0 0 0 0 0 0 0 0 0 0 0 0 0 0 0 0 0 0 0 0 0 0 0 0 0 0 0 0 0 0 0 0 0 0 0
0 0 0 0 0 0 0 0 0 0 0 0 0 0 0 0 0 0 0 0 0 0 0 0 0 0 0 0 0 0 0 0 0 0 0 0 0 0 0 0 0 0 0 0 0 0 0 0 0
Wind_Speed
12 12 9 3 3 5 7 3 4 5 4 7 6 3 6 9 7 7 5 8 14 15 15 14 15 14 14 13 13 13 12 12 12 12 12 12 12 13 13 13 14 14 14 14 14 14 14 15 15
11 9 4 3 4 6 5 4 5 6 8 7 3 1 5 8 9 8 5 9 14 15 14 13 16 15 14 14 14 13 12 12 12 11 12 12 12 12 12 13 13 13 13 13 13 13 14 14 14
11 9 4 4 5 7 3 6 7 9 7 4 3 2 5 7 10 8 8 11 13 13 12 14 17 15 15 14 14 13 12 12 12 11 11 11 11 12 12 12 12 12 12 12 12 12 13 13 13
6 3 4 5 8 5 1 6 9 9 5 2 3 5 6 6 5 9 11 11 12 11 13 14 17 16 15 14 14 13 12 12 11 11 11 11 11 11 11 11 11 11 11 11 11 11 11 11 11
3 4 5 7 9 2 2 6 8 7 7 5 2 6 7 6 12 13 10 11 12 12 13 14 17 16 15 14 14 13 12 12 11 11 10 10 10 10 10 9 9 9 10 10 10 10 10 10 10
3 4 5 7 8 3 3 4 3 5 6 6 3 4 7 8 11 10 10 10 11 12 14 13 17 16 15 15 14 13 12 12 11 10 10 9 9 9 8 8 8 8 8 8 8 8 8 8 8
4 4 7 8 5 4 4 5 5 5 5 6 3 3 8 9 10 10 9 9 10 12 13 11 10 11 14 14 14 13 12 12 11 10 9 9 8 8 7 7 6 6 6 6 6 6 6 5 5
4 5 8 8 3 4 5 3 2 3 2 4 2 0 9 10 11 10 9 8 9 10 13 12 11 10 9 9 12 13 12 12 11 10 8 8 7 7 6 6 5 4 4 4 4 4 4 3 3
4 4 6 5 2 2 7 3 2 2 2 3 3 5 9 13 12 10 8 7 8 9 10 12 12 11 10 9 11 11 11 11 10 9 9 7 4 5 5 6 5 2 1 1 1 2 3 4 5
4 4 6 4 4 3 4 3 4 3 5 4 5 7 9 10 11 11 10 10 10 10 10 11 12 11 11 10 9 6 7 7 6 6 6 5 3 3 4 7 5 3 2 3 4 5 6 5 2
6 7 6 3 4 5 3 2 2 3 6 6 7 12 12 10 10 11 11 11 11 10 9 10 10 11 10 7 8 5 4 5 6 7 7 4 3 2 3 3 3 4 5 3 3 4 3 1 1
8 7 6 2 2 1 4 4 4 5 6 4 0 8 13 12 12 12 12 11 11 11 10 9 10 9 9 8 7 6 4 4 4 5 6 4 2 2 2 2 2 2 1 1 1 2 2 2 2
9 8 6 2 1 3 5 6 7 8 7 6 2 4 9 11 11 11 11 10 11 12 12 10 10 10 8 8 6 6 5 5 5 4 4 4 3 3 2 1 1 1 0 0 1 2 2 2 3
5 6 6 5 6 6 7 8 8 9 8 8 7 7 8 10 11 10 11 10 11 13 13 10 11 10 9 7 6 5 5 5 5 4 5 5 3 3 2 1 1 1 1 1 1 2 2 2 2
4 6 8 8 8 6 4 9 12 13 10 8 8 8 10 10 10 10 10 10 10 12 13 12 11 11 10 9 7 5 5 6 5 5 5 5 4 4 3 2 1 1 1 0 1 2 2 2 2
5 7 7 7 7 5 3 9 8 5 5 7 7 8 8 9 10 9 9 9 9 11 13 13 10 11 11 9 8 5 5 6 5 5 5 5 5 4 3 2 2 2 1 1 0 1 1 2 2
8 8 9 6 7 6 7 7 8 4 4 7 8 8 8 8 9 9 9 10 9 11 12 13 11 11 11 10 7 6 6 6 5 5 5 5 5 4 3 2 2 2 2 1 0 1 1 2 3
7 9 7 6 7 6 7 9 9 9 9 9 9 9 8 8 9 9 10 10 9 9 11 12 12 10 10 8 6 5 5 5 5 5 5 6 5 5 4 3 2 3 2 1 0 1 1 1 1
7 7 6 4 2 3 7 10 11 10 9 9 9 8 8 8 8 9 10 9 9 9 10 12 12 11 9 8 8 7 6 5 4 4 6 6 5 5 4 3 3 2 2 1 1 1 2 2 2
9 9 8 6 2 2 7 12 12 12 11 9 7 6 6 5 4 7 9 9 9 9 9 11 12 11 10 8 7 6 6 4 4 4 5 6 6 5 4 4 3 3 2 2 2 2 1 1 1
10 9 8 6 4 5 8 10 10 8 8 6 5 5 4 4 4 6 8 8 8 8 9 9 11 11 10 9 6 6 5 4 3 4 4 5 6 6 5 4 4 4 3 2 2 2 2 0 1
9 8 6 5 4 5 4 6 7 7 5 6 6 5 3 3 3 5 7 8 8 8 8 8 9 10 10 10 9 10 7 6 5 5 4 5 6 6 5 5 5 4 3 3 3 2 2 2 0
6 2 3 4 5 7 8 8 7 7 6 6 6 5 4 3 3 4 7 8 8 7 7 7 8 9 9 10 10 10 7 5 5 6 7 6 5 6 6 5 5 4 3 4 3 2 2 1 2
5 3 2 3 3 8 10 9 7 5 5 5 5 5 4 5 4 4 6 7 7 7 6 6 7 8 9 10 10 10 9 8 8 8 8 6 4 4 6 6 5 4 4 4 4 3 2 1 1
7 5 4 5 6 8 6 7 7 3 3 4 4 3 4 5 6 5 7 7 8 8 7 6 7 8 9 10 10 9 9 9 10 9 8 7 5 4 6 5 5 4 4 4 4 3 2 2 2
11 10 8 5 5 3 4 7 6 3 4 5 4 4 4 6 6 6 7 7 8 8 8 7 8 8 9 9 9 8 9 7 6 7 7 7 6 5 7 6 6 6 5 5 4 3 3 3 3
12 13 10 6 6 4 5 5 5 5 4 4 4 4 5 6 6 7 7 7 8 9 9 8 9 9 9 9 8 8 8 7 7 8 7 6 6 6 8 7 6 6 5 5 4 3 4 3 3
9 9 6 6 5 6 7 9 7 8 8 6 5 5 5 6 7 7 7 7 8 8 8 8 8 9 9 9 8 6 7 8 8 7 7 7 7 7 8 7 6 6 5 5 4 3 3 4 3
12 11 8 7 6 4 4 4 3 7 8 8 6 6 6 6 7 7 7 7 7 8 8 8 8 8 8 8 7 7 7 7 7 7 7 7 7 8 8 7 7 6 5 5 4 4 4 4 4
14 14 12 9 7 7 4 5 2 6 7 6 5 5 5 6 6 6 7 7 7 8 7 7 7 7 8 7 7 7 7 7 7 7 7 8 8 7 7 7 6 6 6 5 5 5 5 5 5
Wind_Direction
283 262 248 240 241 234 239 218 109 99 87 68 57 15 46 46 46 107 154 143 125 132 137 147 144 138 131 127 122 115 109 105 98 93 90 87 83 79 77 74 72 70 67 65 63 61 60 60 59
285 271 248 239 240 237 218 166 117 106 93 91 99 165 99 83 91 111 138 127 130 134 140 146 144 138 132 128 125 120 115 109 103 99 95 91 87 83 80 77 74 72 69 67 64 62 60 59 58
267 266 240 227 238 247 186 132 119 100 107 136 147 48 61 96 115 129 137 134 133 136 140 141 145 141 136 132 129 125 121 115 110 105 100 95 90 86 82 78 76 74 71 68 65 63 60 59 57
249 232 244 247 243 244 114 123 118 118 126 176 156 119 83 60 87 116 133 139 136 137 134 142 148 146 141 137 132 130 125 120 115 111 106 100 95 90 86 82 79 76 73 70 66 63 60 57 54
248 237 233 245 254 208 111 98 119 144 160 180 223 116 100 84 100 121 142 143 142 141 135 147 152 151 147 144 139 135 129 127 122 118 113 108 102 97 92 87 82 77 73 69 65 61 58 54 50
236 243 233 229 232 188 134 111 152 188 167 153 182 134 113 129 126 140 145 146 145 138 135 146 154 154 152 149 144 141 137 134 131 127 122 116 112 107 103 95 86 78 72 65 60 56 52 48 43
252 258 260 250 211 169 158 143 192 213 179 158 166 134 126 144 136 142 146 151 143 137 137 146 154 156 156 153 150 147 144 141 139 135 131 127 124 119 113 105 94 82 71 61 54 49 41 35 28
282 273 260 262 236 169 136 142 223 243 187 110 125 119 138 144 140 143 150 150 143 142 145 153 159 159 157 154 153 151 150 149 147 143 140 142 143 140 136 122 105 86 65 52 41 35 20 3 338
277 266 257 244 245 137 119 161 208 354 328 113 105 67 117 133 143 145 149 150 150 155 154 159 163 163 162 160 158 153 154 155 152 150 157 161 174 170 160 133 135 123 84 26 12 338 313 299 278
226 259 275 353 11 28 117 191 193 174 246 201 142 111 123 142 154 160 166 170 168 169 168 165 164 164 164 162 156 160 162 158 166 164 171 190 190 148 138 141 167 196 230 253 254 268 282 278 263
226 249 277 335 16 5 0 272 265 222 236 228 190 158 155 164 170 177 182 181 175 173 174 169 163 163 162 155 161 166 163 163 182 173 176 180 150 143 144 161 181 208 224 236 237 259 258 289 317
243 254 264 288 68 355 298 288 273 249 258 284 303 145 159 174 184 189 191 186 174 173 177 171 161 160 159 158 164 164 160 165 171 169 170 162 151 166 171 177 175 195 190 201 271 275 289 304 307
240 256 263 253 193 236 274 273 270 263 263 277 272 153 172 186 193 195 196 189 173 173 173 174 164 163 161 160 165 166 162 163 163 161 172 161 157 172 174 176 168 173 137 240 280 289 317 325 323
258 259 257 246 231 226 239 257 257 253 248 247 237 206 200 203 201 197 193 192 178 172 172 172 169 167 164 162 164 166 161 157 160 161 174 170 164 163 166 179 167 176 189 222 270 299 328 318 330
293 283 271 245 228 228 244 258 247 247 239 239 236 225 212 211 206 200 191 187 178 169 168 171 173 170 168 169 170 167 159 155 160 162 175 171 164 165 170 177 174 183 185 219 337 345 344 329 334
235 245 250 235 210 178 197 258 263 238 207 231 240 241 225 211 204 198 189 180 176 166 167 171 174 174 172 172 172 166 164 160 161 161 169 171 170 172 173 167 172 156 118 85 38 352 350 340 348
225 234 237 218 188 170 201 256 271 264 229 234 237 239 231 213 201 194 185 176 174 168 165 168 170 174 173 171 170 165 163 160 160 161 164 168 172 171 158 159 157 132 117 115 268 71 50 357 349
219 223 234 220 170 183 223 254 264 264 248 242 238 234 230 217 202 188 181 173 170 168 163 165 167 173 168 165 166 161 160 162 161 159 160 159 163 161 154 148 140 127 129 146 14 39 44 42 6
270 286 286 286 127 188 248 264 266 260 252 247 243 238 232 225 201 176 169 160 160 164 164 165 167 173 168 167 171 169 171 165 161 155 158 158 159 155 148 141 145 135 139 145 101 67 32 26 26
241 257 270 281 194 220 259 268 268 256 248 240 238 243 241 236 201 167 157 155 161 167 168 166 168 172 172 170 169 165 160 160 154 149 155 159 155 150 151 156 151 141 132 113 96 90 53 2 58
227 236 251 272 307 268 264 273 261 252 228 218 220 227 234 222 200 164 155 159 162 170 172 172 171 169 169 161 155 148 137 131 136 152 158 161 153 147 148 156 146 140 139 140 131 119 119 57 352
230 226 239 267 284 280 274 290 274 263 225 201 200 200 203 190 186 168 162 163 168 168 164 167 164 163 165 161 164 164 163 164 168 161 159 159 154 151 153 151 141 142 139 140 141 126 130 126 238
216 189 227 246 259 271 265 266 263 241 223 193 180 165 159 155 166 169 165 162 158 147 149 158 158 161 165 166 168 168 169 166 154 153 158 162 158 154 153 149 143 147 143 140 136 131 141 148 171
171 157 236 255 258 256 235 234 267 234 206 162 142 138 147 151 152 152 142 136 131 130 139 152 158 162 166 168 172 178 176 169 160 161 163 162 156 153 155 151 151 153 146 145 148 154 165 177 186
173 167 202 208 211 238 208 215 246 220 122 117 122 125 136 141 146 148 141 143 138 140 150 160 162 164 167 170 178 184 179 173 168 165 164 160 158 160 165 156 160 157 153 152 152 162 181 190 197
188 193 204 205 213 210 184 220 241 187 135 125 135 143 141 141 144 152 155 154 150 155 164 173 173 171 171 176 182 181 176 171 167 164 161 165 165 165 161 163 165 160 157 157 160 173 192 193 204
187 208 232 276 298 294 248 232 220 182 150 149 158 154 150 147 147 154 157 160 158 165 174 181 178 172 174 177 178 178 175 168 163 161 159 159 155 154 156 161 164 162 160 165 169 187 200 197 210
207 188 193 211 219 239 246 239 227 182 180 177 170 162 151 144 149 157 163 167 163 167 175 181 178 173 173 175 179 176 170 163 158 156 158 155 150 148 154 163 166 165 168 174 180 193 204 202 218
197 206 197 197 220 217 242 247 203 164 157 157 157 150 148 154 159 162 166 167 162 162 170 177 175 168 171 174 171 165 162 156 153 155 157 153 149 153 161 167 167 171 177 182 188 200 206 214 228
203 206 201 198 208 213 240 266 120 118 124 131 136 140 144 146 154 158 161 161 161 167 172 174 172 168 170 168 163 162 157 153 155 158 158 153 154 160 164 166 169 177 182 187 194 207 210 217 230